Americus, GA

10:26 PM EST on January 16, 2018 (GMT -0500)
Souther

Weather History for KACJ - April, 2014

Change the Weather History Date:

Thursday, April 3, 2014

  Actual Average (KABY) Record (KABY)
Temperature  
Mean Temperature 66 °F -  
Max Temperature 82 °F 74 °F 89 °F (2012)
Min Temperature 51 °F 50 °F 30 °F (1971)
Cooling Degree Days 2    
Growing Degree Days 16 (Base 50)    
Moisture  
Dew Point 53 °F    
Average Humidity 64    
Maximum Humidity 100    
Minimum Humidity 32    
Precipitation  
Precipitation 0.00 in - - ()
Sea Level Pressure  
Sea Level Pressure 30.08 in    
Wind  
Wind Speed 4 mph (SW)    
Max Wind Speed 14 mph    
Max Gust Speed 22 mph    
Visibility 9 miles    
Events      
Averages and records for this station are not official NWS values.
T = Trace of Precipitation, MM = Missing Value Source: NWS Daily Summary

Daily Weather History Graph

Daily Weather History Graph

Search for Another Location

Airport or City:

Trip Planner

Search our weather history database for the weather conditions in past years. The results will help you decide how hot, cold, wet, or windy it might be!

Date:

Astronomy

Apr. 03, 2014 Rise Set
Actual Time 7:22 AM EDT 7:57 PM EDT
Civil Twilight 6:57 AM EDT 8:22 PM EDT
Nautical Twilight 6:28 AM EDT 8:51 PM EDT
Astronomical Twilight 5:59 AM EDT 9:21 PM EDT
Moon 10:02 AM EDT (4/3) No Moon Set
Length of Visible Light 13h 24m
Length of Day
12h 35m
Waxing Crescent, 17% of the Moon is Illuminated
Apr 3
Waxing Crescent
Apr 7
First Quarter
Apr 15
Full
Apr 22
Last Quarter
Apr 29
New

Hourly Weather History & Observations

Time (EDT) Temp. Dew Point Humidity Pressure Visibility Wind Dir Wind Speed Gust Speed Precip Events Conditions
12:10 AM 66.2 °F 53.6 °F 64% 30.13 in 10.0 mi SSW 5.8 mph - N/A   Clear
12:50 AM 64.4 °F 53.6 °F 68% 30.13 in 10.0 mi SSW 4.6 mph - N/A   Clear
1:10 AM 62.6 °F 53.6 °F 72% 30.13 in 10.0 mi South 3.5 mph - N/A   Clear
1:30 AM 62.6 °F 53.6 °F 72% 30.13 in 10.0 mi SSW 4.6 mph - N/A   Clear
1:50 AM 62.6 °F 53.6 °F 72% 30.12 in 10.0 mi SSW 3.5 mph - N/A   Clear
2:10 AM 60.8 °F 53.6 °F 77% 30.12 in 10.0 mi Calm Calm - N/A   Clear
2:30 AM 59.0 °F 53.6 °F 82% 30.12 in 10.0 mi Calm Calm - N/A   Clear
2:50 AM 59.0 °F 53.6 °F 82% 30.11 in 10.0 mi Calm Calm - N/A   Clear
3:10 AM 57.2 °F 53.6 °F 88% 30.10 in 10.0 mi Calm Calm - N/A   Clear
3:30 AM 55.4 °F 53.6 °F 94% 30.10 in 10.0 mi Calm Calm - N/A   Clear
3:50 AM 55.4 °F 53.6 °F 94% 30.09 in 10.0 mi Calm Calm - N/A   Clear
4:10 AM 53.6 °F 53.6 °F 100% 30.08 in 10.0 mi Calm Calm - N/A   Clear
4:30 AM 55.4 °F 53.6 °F 94% 30.08 in 10.0 mi SSW 3.5 mph - N/A   Clear
4:50 AM 57.2 °F 55.4 °F 94% 30.08 in 10.0 mi SW 3.5 mph - N/A   Clear
5:10 AM 57.2 °F 55.4 °F 94% 30.08 in 10.0 mi Calm Calm - N/A   Clear
5:30 AM 55.4 °F 55.4 °F 100% 30.08 in 10.0 mi Calm Calm - N/A   Clear
6:10 AM 55.4 °F 55.4 °F 100% 30.08 in 10.0 mi Calm Calm - N/A   Clear
6:30 AM 55.4 °F 55.4 °F 100% 30.08 in 10.0 mi Calm Calm - N/A   Clear
6:50 AM 55.4 °F 55.4 °F 100% 30.09 in 7.0 mi Calm Calm - N/A   Clear
7:10 AM 53.6 °F 53.6 °F 100% 30.10 in 1.8 mi Calm Calm - N/A   Mist
7:30 AM 51.8 °F 51.8 °F 100% 30.10 in 0.8 mi Calm Calm - N/A   Mist
7:50 AM 51.8 °F 51.8 °F 100% 30.11 in 1.5 mi Calm Calm - N/A   Mist
8:10 AM 53.6 °F 53.6 °F 100% 30.11 in 7.0 mi Calm Calm - N/A   Clear
8:30 AM 55.4 °F 55.4 °F 100% 30.11 in 7.0 mi Calm Calm - N/A   Clear
8:50 AM 59.0 °F 59.0 °F 100% 30.12 in 7.0 mi Calm Calm - N/A   Clear
9:10 AM 59.0 °F 59.0 °F 100% 30.12 in 7.0 mi Calm Calm - N/A   Clear
9:30 AM 60.8 °F 60.8 °F 100% 30.13 in 10.0 mi SSW 3.5 mph - N/A   Clear
9:50 AM 62.6 °F 60.8 °F 94% 30.13 in 10.0 mi SSW 5.8 mph - N/A   Clear
10:10 AM 64.4 °F 59.0 °F 83% 30.13 in 10.0 mi SSW 5.8 mph - N/A   Clear
10:30 AM 64.4 °F 55.4 °F 73% 30.13 in 10.0 mi SSW 5.8 mph - N/A   Clear
10:50 AM 68.0 °F 55.4 °F 64% 30.13 in 10.0 mi WSW 8.1 mph - N/A   Clear
11:10 AM 69.8 °F 53.6 °F 56% 30.13 in 10.0 mi SSW 9.2 mph - N/A   Clear
11:30 AM 71.6 °F 51.8 °F 50% 30.13 in 10.0 mi SSW 9.2 mph - N/A   Clear
11:50 AM 71.6 °F 53.6 °F 53% 30.13 in 10.0 mi WSW 8.1 mph - N/A   Clear
12:10 PM 73.4 °F 51.8 °F 47% 30.12 in 10.0 mi South 5.8 mph - N/A   Clear
12:30 PM 75.2 °F 51.8 °F 44% 30.11 in 10.0 mi SW 8.1 mph - N/A   Clear
12:50 PM 75.2 °F 51.8 °F 44% 30.11 in 10.0 mi SW 6.9 mph 16.1 mph N/A   Clear
1:10 PM 77.0 °F 50.0 °F 39% 30.10 in 10.0 mi South 11.5 mph - N/A   Scattered Clouds
1:30 PM 78.8 °F 50.0 °F 36% 30.09 in 10.0 mi SW 9.2 mph 17.3 mph N/A   Clear
1:50 PM 78.8 °F 50.0 °F 36% 30.08 in 10.0 mi WSW 12.7 mph 17.3 mph N/A   Clear
2:10 PM 78.8 °F 50.0 °F 36% 30.08 in 10.0 mi South 9.2 mph 16.1 mph N/A   Clear
2:30 PM 78.8 °F 50.0 °F 36% 30.07 in 10.0 mi SW 8.1 mph - N/A   Clear
2:50 PM 80.6 °F 50.0 °F 34% 30.05 in 10.0 mi WSW 11.5 mph 19.6 mph N/A   Clear
3:10 PM 80.6 °F 50.0 °F 34% 30.05 in 10.0 mi SSW 11.5 mph 21.9 mph N/A   Clear
3:30 PM 80.6 °F 50.0 °F 34% 30.04 in 10.0 mi SW 10.4 mph 17.3 mph N/A   Clear
3:50 PM 80.6 °F 50.0 °F 34% 30.03 in 10.0 mi SW 9.2 mph 19.6 mph N/A   Clear
4:10 PM 80.6 °F 50.0 °F 34% 30.02 in 10.0 mi SW 13.8 mph 19.6 mph N/A   Clear
4:30 PM 82.4 °F 51.8 °F 35% 30.01 in 10.0 mi SW 12.7 mph 18.4 mph N/A   Clear
4:50 PM 82.4 °F 50.0 °F 32% 30.01 in 10.0 mi SW 13.8 mph 20.7 mph N/A   Clear
5:10 PM 80.6 °F 50.0 °F 34% 30.01 in 10.0 mi SW 9.2 mph - N/A   Clear
5:30 PM 82.4 °F 50.0 °F 32% 30.01 in 10.0 mi SW 11.5 mph 16.1 mph N/A   Clear
5:50 PM 82.4 °F 51.8 °F 35% 30.01 in 10.0 mi SW 8.1 mph - N/A   Clear
6:10 PM 82.4 °F 50.0 °F 32% 30.01 in 10.0 mi SSW 9.2 mph 18.4 mph N/A   Clear
6:30 PM 80.6 °F 50.0 °F 34% 30.01 in 10.0 mi SW 12.7 mph 18.4 mph N/A   Clear
6:50 PM 78.8 °F 50.0 °F 36% 30.02 in 10.0 mi SW 8.1 mph - N/A   Clear
7:10 PM 78.8 °F 50.0 °F 36% 30.02 in 10.0 mi SW 4.6 mph - N/A   Clear
7:30 PM 77.0 °F 50.0 °F 39% 30.02 in 10.0 mi SW 8.1 mph - N/A   Clear
7:50 PM 77.0 °F 50.0 °F 39% 30.02 in 10.0 mi SW 5.8 mph - N/A   Clear
8:10 PM 75.2 °F 51.8 °F 44% 30.01 in 10.0 mi SW 4.6 mph - N/A   Clear
8:50 PM 73.4 °F 51.8 °F 47% 30.02 in 10.0 mi SW 3.5 mph - N/A   Clear
9:10 PM 71.6 °F 51.8 °F 50% 30.02 in 10.0 mi SW 4.6 mph - N/A   Clear
9:30 PM 71.6 °F 51.8 °F 50% 30.02 in 10.0 mi SW 4.6 mph - N/A   Clear
9:50 PM 69.8 °F 53.6 °F 56% 30.03 in 10.0 mi SW 3.5 mph - N/A   Clear
10:10 PM 69.8 °F 53.6 °F 56% 30.03 in 10.0 mi SSW 3.5 mph - N/A   Clear
10:30 PM 69.8 °F 51.8 °F 53% 30.03 in 10.0 mi SSW 3.5 mph - N/A   Clear
11:50 PM 66.2 °F 53.6 °F 64% 30.03 in 10.0 mi SSW 4.6 mph - N/A   Clear